Hourly Data Report for October 07, 2014

All times are specified in Local Standard Time (LST). Add 1 hour to adjust for Daylight Saving Time where and when it is observed.

PENTICTON A
BRITISH COLUMBIA

49°27'45.000" N
119°36'08.000" W
344.40 m
1126146
71889
YYF

Download Data

Hourly Data (October 2014)
Hourly Data Report for October 7, 2014
Temp Definition
°C
Dew Point Temp Definition
°C
Rel Hum Definition
%
Wind Dir Definition
10's deg

Wind Spd Definition
km/h
Visibility Definition
km
Stn Press Definition
kPa
Hmdx Definition


Wind Chill Definition


Weather Definition


TIME
00:00 Legend Double Dagger 12.8 10.5 86 36 11 24.1 97.40     LegendNANA
01:00 Legend Double Dagger 11.2 9.8 91 36 5 24.1 97.39     Mainly Clear
02:00 Legend Double Dagger 10.0 8.9 93 36 3 24.1 97.41     LegendNANA
03:00 Legend Double Dagger 9.4 8.5 94 1 4 24.1 97.41     LegendNANA
04:00 Legend Double Dagger 8.3 7.6 95 36 3 24.1 97.40     Clear
05:00 Legend Double Dagger 8.8 8.4 97 36 4 24.1 97.40     LegendNANA
06:00 Legend Double Dagger 10.3 9.4 94 4 3 24.1 97.37     LegendNANA
07:00 Legend Double Dagger 7.9 7.3 96 3 6 24.1 97.39     Mainly Clear
08:00 Legend Double Dagger 13.1 11.0 87 36 1 24.1 97.42     LegendNANA
09:00 Legend Double Dagger 16.0 11.8 76 2 5 24.1 97.38     LegendNANA
10:00 Legend Double Dagger 18.3 12.2 67 35 5 24.1 97.33     Mainly Clear
11:00 Legend Double Dagger 19.2 11.8 62 36 9 24.1 97.26     LegendNANA
12:00 Legend Double Dagger 20.0 11.9 59 34 9 24.1 97.19     LegendNANA
13:00 Legend Double Dagger 20.7 12.8 60 34 12 24.1 97.07     Mainly Clear
14:00 Legend Double Dagger 20.6 12.9 61 35 14 24.1 96.99     LegendNANA
15:00 Legend Double Dagger 20.5 12.6 60 36 14 24.1 96.92     LegendNANA
16:00 Legend Double Dagger 19.4 13.0 66 35 11 24.1 96.88     Mostly Cloudy
17:00 Legend Double Dagger 16.9 13.3 79 1 10 24.1 96.88     LegendNANA
18:00 Legend Double Dagger 16.8 13.2 79 32 8 24.1 96.92     LegendNANA
19:00 Legend Double Dagger 15.6 12.2 80 33 11 24.1 96.94     Mostly Cloudy
20:00 Legend Double Dagger 14.5 11.3 81 35 9 24.1 96.95     LegendNANA
21:00 Legend Double Dagger 13.1 10.3 83 36 11 24.1 96.95     LegendNANA
22:00 Legend Double Dagger 14.3 11.1 81 35 13 24.1 96.99     Mostly Cloudy
23:00 Legend Double Dagger 13.4 10.2 81 36 13 24.1 97.02     LegendNANA

Notes on Data Quality.

Legend

  • E = Estimated
  • M = Missing
  • NA = Not Available
  • ‡ = Partner data that is not subject to review by the National Climate Archives
Date modified: